Torna al catalogo

ARIANE 2 DEB

AttivoHEO
NORAD 27626·DEBRIS·🇫🇷 France

Lanciato Oct 28, 1988 da Guiana Space Centre

Loading…

Prossimi Passaggi (prossime 24 ore)

TLE

AggiornatoSource: Space-Track

Epoca: Sep 14, 2026, 14:07 UTC

1 27626U 88098J   26257.58862106 -.00000055  00000-0  00000-0 0  9995
2 27626   4.2706 314.3511 6394412 128.1185 210.7141  2.76073748269802

Traccia ARIANE 2 DEB in tempo reale con AllMySat

Download on the App Store